Time,TemperatureF,DewpointF,PressureIn,WindDirection,WindDirectionDegrees,WindSpeedMPH,WindSpeedGustMPH,Humidity,HourlyPrecipIn,Conditions,Clouds,dailyrainin,SoftwareType,DateUTC
2013-01-22 00:00:00,19.5,9.7,29.97,WSW,239,1.0,4.0,65,0.00,,SKC,0.00,VWS V14.01,2013-01-22 05:00:00,
2013-01-22 00:01:00,19.4,9.6,29.98,NW,319,1.0,3.0,65,0.00,,SKC,0.00,VWS V14.01,2013-01-22 05:01:00,
2013-01-22 00:06:00,19.0,9.2,29.99,East,80,1.0,5.0,65,0.00,,SKC,0.00,VWS V14.01,2013-01-22 05:06:00,
2013-01-22 00:11:00,18.6,8.5,29.98,South,174,4.0,4.0,64,0.00,,SKC,0.00,VWS V14.01,2013-01-22 05:11:00,
2013-01-22 00:16:00,18.4,8.3,29.98,North,355,0.0,1.0,64,0.00,,SKC,0.00,VWS V14.01,2013-01-22 05:16:00,
2013-01-22 00:21:00,18.2,8.1,29.98,SE,132,1.0,6.0,64,0.00,,SKC,0.00,VWS V14.01,2013-01-22 05:21:00,
2013-01-22 00:26:00,17.9,7.4,29.98,West,277,0.0,0.0,63,0.00,,SKC,0.00,VWS V14.01,2013-01-22 05:26:00,
2013-01-22 00:31:00,17.7,7.3,29.98,WNW,290,1.0,1.0,63,0.00,,SKC,0.00,VWS V14.01,2013-01-22 05:31:00,
2013-01-22 00:36:00,17.5,6.7,29.98,West,271,0.0,2.0,62,0.00,,SKC,0.00,VWS V14.01,2013-01-22 05:36:00,
2013-01-22 00:41:00,17.3,6.5,29.98,SSW,205,3.0,3.0,62,0.00,,SKC,0.00,VWS V14.01,2013-01-22 05:41:00,
2013-01-22 00:46:00,17.3,6.9,29.98,West,265,0.0,2.0,63,0.00,,SKC,0.00,VWS V14.01,2013-01-22 05:46:00,
2013-01-22 00:51:00,17.1,6.3,29.99,South,187,2.0,5.0,62,0.00,,SKC,0.00,VWS V14.01,2013-01-22 05:51:00,
2013-01-22 00:56:00,17.0,6.2,29.99,West,262,0.0,7.0,62,0.00,,SKC,0.00,VWS V14.01,2013-01-22 05:56:00,
2013-01-22 01:01:00,16.9,6.2,29.99,WSW,243,0.0,2.0,62,0.00,,SKC,0.00,VWS V14.01,2013-01-22 06:01:00,
2013-01-22 01:06:00,16.7,5.6,30.00,WSW,250,0.0,1.0,61,0.00,,SKC,0.00,VWS V14.01,2013-01-22 06:06:00,
2013-01-22 01:11:00,16.6,5.5,30.00,NW,319,4.0,4.0,61,0.00,,SKC,0.00,VWS V14.01,2013-01-22 06:11:00,
2013-01-22 01:16:00,16.4,5.7,30.00,NW,315,1.0,5.0,62,0.00,,SKC,0.00,VWS V14.01,2013-01-22 06:16:00,
2013-01-22 01:21:00,16.4,5.7,30.00,SW,236,1.0,3.0,62,0.00,,SKC,0.00,VWS V14.01,2013-01-22 06:21:00,
2013-01-22 01:26:00,16.2,5.1,30.00,NNW,327,6.0,6.0,61,0.00,,SKC,0.00,VWS V14.01,2013-01-22 06:26:00,
2013-01-22 01:31:00,16.2,5.1,30.00,South,171,0.0,6.0,61,0.00,,SKC,0.00,VWS V14.01,2013-01-22 06:31:00,
2013-01-22 01:36:00,16.1,5.0,30.00,WNW,294,0.0,1.0,61,0.00,,SKC,0.00,VWS V14.01,2013-01-22 06:36:00,
2013-01-22 01:41:00,16.0,5.3,30.01,NNW,342,1.0,1.0,62,0.00,,SKC,0.00,VWS V14.01,2013-01-22 06:41:00,
2013-01-22 01:46:00,15.9,4.8,30.01,NW,326,0.0,2.0,61,0.00,,SKC,0.00,VWS V14.01,2013-01-22 06:46:00,
2013-01-22 01:51:00,15.9,5.2,30.01,NNW,345,0.0,2.0,62,0.00,,SKC,0.00,VWS V14.01,2013-01-22 06:51:00,
2013-01-22 01:56:00,15.8,4.8,30.01,WNW,292,2.0,5.0,61,0.00,,SKC,0.00,VWS V14.01,2013-01-22 06:56:00,
2013-01-22 02:01:00,15.7,4.7,30.01,WSW,252,1.0,6.0,61,0.00,,SKC,0.00,VWS V14.01,2013-01-22 07:01:00,
2013-01-22 02:06:00,15.5,4.5,30.01,WNW,296,0.0,1.0,61,0.00,,SKC,0.00,VWS V14.01,2013-01-22 07:06:00,
2013-01-22 02:11:00,15.5,4.5,30.02,WSW,246,0.0,8.0,61,0.00,,SKC,0.00,VWS V14.01,2013-01-22 07:11:00,
2013-01-22 02:16:00,15.3,3.9,30.03,WNW,297,0.0,1.0,60,0.00,,SKC,0.00,VWS V14.01,2013-01-22 07:16:00,
2013-01-22 02:21:00,15.2,3.8,30.03,SSE,159,6.0,6.0,60,0.00,,SKC,0.00,VWS V14.01,2013-01-22 07:21:00,
2013-01-22 02:26:00,15.0,3.3,30.03,NW,318,1.0,4.0,59,0.00,,SKC,0.00,VWS V14.01,2013-01-22 07:26:00,
2013-01-22 02:31:00,14.9,2.8,30.03,SE,124,0.0,1.0,58,0.00,,SKC,0.00,VWS V14.01,2013-01-22 07:31:00,
2013-01-22 02:36:00,14.7,2.2,30.03,SSW,197,8.0,8.0,57,0.00,,SKC,0.00,VWS V14.01,2013-01-22 07:36:00,
2013-01-22 02:41:00,14.4,2.0,30.04,West,267,1.0,1.0,57,0.00,,SKC,0.00,VWS V14.01,2013-01-22 07:41:00,
2013-01-22 02:46:00,14.3,1.9,30.04,WSW,250,4.0,4.0,57,0.00,,SKC,0.00,VWS V14.01,2013-01-22 07:46:00,
2013-01-22 02:51:00,14.1,1.7,30.04,NNW,336,0.0,6.0,57,0.00,,SKC,0.00,VWS V14.01,2013-01-22 07:51:00,
2013-01-22 02:56:00,13.9,1.5,30.04,SW,235,0.0,4.0,57,0.00,,SKC,0.00,VWS V14.01,2013-01-22 07:56:00,
2013-01-22 03:01:00,13.7,0.9,30.04,WNW,302,0.0,0.0,56,0.00,,SKC,0.00,VWS V14.01,2013-01-22 08:01:00,
2013-01-22 03:06:00,13.5,1.1,30.04,South,178,5.0,5.0,57,0.00,,SKC,0.00,VWS V14.01,2013-01-22 08:06:00,
2013-01-22 03:11:00,13.4,1.4,30.05,NW,306,0.0,0.0,58,0.00,,SKC,0.00,VWS V14.01,2013-01-22 08:11:00,
2013-01-22 03:16:00,13.2,1.6,30.06,SW,235,1.0,5.0,59,0.00,,SKC,0.00,VWS V14.01,2013-01-22 08:16:00,
2013-01-22 03:21:00,13.1,1.8,30.06,West,275,0.0,2.0,60,0.00,,SKC,0.00,VWS V14.01,2013-01-22 08:21:00,
2013-01-22 03:26:00,13.0,1.7,30.06,West,274,0.0,2.0,60,0.00,,SKC,0.00,VWS V14.01,2013-01-22 08:26:00,
2013-01-22 03:31:00,13.0,1.7,30.06,WNW,285,0.0,1.0,60,0.00,,SKC,0.00,VWS V14.01,2013-01-22 08:31:00,
2013-01-22 03:36:00,12.8,1.5,30.05,West,274,0.0,0.0,60,0.00,,SKC,0.00,VWS V14.01,2013-01-22 08:36:00,
2013-01-22 03:41:00,12.8,1.5,30.06,West,277,4.0,4.0,60,0.00,,SKC,0.00,VWS V14.01,2013-01-22 08:41:00,
2013-01-22 03:46:00,12.6,1.4,30.06,WNW,290,0.0,1.0,60,0.00,,SKC,0.00,VWS V14.01,2013-01-22 08:46:00,
2013-01-22 03:51:00,12.5,0.9,30.06,WSW,257,0.0,8.0,59,0.00,,SKC,0.00,VWS V14.01,2013-01-22 08:51:00,
2013-01-22 03:56:00,12.3,0.7,30.06,WNW,284,1.0,6.0,59,0.00,,SKC,0.00,VWS V14.01,2013-01-22 08:56:00,
2013-01-22 04:01:00,12.1,-0.2,30.06,NNW,329,1.0,5.0,57,0.00,,SKC,0.00,VWS V14.01,2013-01-22 09:01:00,
2013-01-22 04:06:00,12.0,-1.1,30.06,SSW,211,10.0,10.0,55,0.00,,SKC,0.00,VWS V14.01,2013-01-22 09:06:00,
2013-01-22 04:11:00,11.8,-1.6,30.07,NNW,335,8.0,8.0,54,0.00,,SKC,0.00,VWS V14.01,2013-01-22 09:11:00,
2013-01-22 04:16:00,11.6,-2.2,30.07,South,184,3.0,5.0,53,0.00,,SKC,0.00,VWS V14.01,2013-01-22 09:16:00,
2013-01-22 04:21:00,11.4,-2.8,30.08,NW,309,0.0,1.0,52,0.00,,SKC,0.00,VWS V14.01,2013-01-22 09:21:00,
2013-01-22 04:26:00,11.2,-3.0,30.08,SW,217,4.0,4.0,52,0.00,,SKC,0.00,VWS V14.01,2013-01-22 09:26:00,
2013-01-22 04:31:00,11.0,-2.8,30.08,NW,309,0.0,2.0,53,0.00,,SKC,0.00,VWS V14.01,2013-01-22 09:31:00,
2013-01-22 04:36:00,10.9,-2.9,30.08,West,265,0.0,0.0,53,0.00,,SKC,0.00,VWS V14.01,2013-01-22 09:36:00,
2013-01-22 04:41:00,10.7,-3.0,30.08,WSW,246,5.0,6.0,53,0.00,,SKC,0.00,VWS V14.01,2013-01-22 09:41:00,
2013-01-22 04:46:00,10.5,-3.2,30.08,WNW,300,0.0,1.0,53,0.00,,SKC,0.00,VWS V14.01,2013-01-22 09:46:00,
2013-01-22 04:51:00,10.4,-3.3,30.08,SW,232,1.0,5.0,53,0.00,,SKC,0.00,VWS V14.01,2013-01-22 09:51:00,
2013-01-22 04:56:00,10.2,-3.5,30.08,SW,215,0.0,1.0,53,0.00,,SKC,0.00,VWS V14.01,2013-01-22 09:56:00,
2013-01-22 05:01:00,10.0,-3.3,30.09,SW,219,1.0,1.0,54,0.00,,SKC,0.00,VWS V14.01,2013-01-22 10:01:00,
2013-01-22 05:06:00,9.9,-3.0,30.09,NW,307,0.0,0.0,55,0.00,,SKC,0.00,VWS V14.01,2013-01-22 10:06:00,
2013-01-22 05:11:00,9.9,-3.0,30.10,SW,226,0.0,0.0,55,0.00,,SKC,0.00,VWS V14.01,2013-01-22 10:11:00,
2013-01-22 05:16:00,9.8,-2.7,30.10,West,275,0.0,0.0,56,0.00,,SKC,0.00,VWS V14.01,2013-01-22 10:16:00,
2013-01-22 05:21:00,9.7,-2.5,30.11,West,280,0.0,2.0,57,0.00,,SKC,0.00,VWS V14.01,2013-01-22 10:21:00,
2013-01-22 05:26:00,9.6,-2.9,30.11,WNW,298,0.0,0.0,56,0.00,,SKC,0.00,VWS V14.01,2013-01-22 10:26:00,
2013-01-22 05:31:00,9.5,-3.0,30.11,SSW,207,0.0,0.0,56,0.00,,SKC,0.00,VWS V14.01,2013-01-22 10:31:00,
2013-01-22 05:36:00,9.4,-2.8,30.12,SSW,205,0.0,0.0,57,0.00,,SKC,0.00,VWS V14.01,2013-01-22 10:36:00,
2013-01-22 05:41:00,9.3,-2.8,30.12,SW,228,0.0,0.0,57,0.00,,SKC,0.00,VWS V14.01,2013-01-22 10:41:00,
2013-01-22 05:46:00,9.2,-2.6,30.12,North,355,0.0,5.0,58,0.00,,SKC,0.00,VWS V14.01,2013-01-22 10:46:00,
2013-01-22 05:51:00,9.1,-2.3,30.12,WNW,284,0.0,0.0,59,0.00,,SKC,0.00,VWS V14.01,2013-01-22 10:51:00,
2013-01-22 05:56:00,9.1,-2.3,30.13,SW,214,0.0,0.0,59,0.00,,SKC,0.00,VWS V14.01,2013-01-22 10:56:00,
2013-01-22 06:01:00,9.1,-2.3,30.13,NNW,347,0.0,1.0,59,0.00,,SKC,0.00,VWS V14.01,2013-01-22 11:01:00,
2013-01-22 06:06:00,9.0,-2.0,30.13,NW,317,0.0,1.0,60,0.00,,SKC,0.00,VWS V14.01,2013-01-22 11:06:00,
2013-01-22 06:11:00,9.0,-2.0,30.13,NNW,335,0.0,0.0,60,0.00,,SKC,0.00,VWS V14.01,2013-01-22 11:11:00,
2013-01-22 06:16:00,9.0,-1.7,30.13,WSW,248,1.0,1.0,61,0.00,,SKC,0.00,VWS V14.01,2013-01-22 11:16:00,
2013-01-22 06:21:00,9.0,-1.4,30.14,WNW,288,5.0,5.0,62,0.00,,SKC,0.00,VWS V14.01,2013-01-22 11:21:00,
2013-01-22 06:26:00,9.0,-1.7,30.14,West,271,0.0,0.0,61,0.00,,SKC,0.00,VWS V14.01,2013-01-22 11:26:00,
2013-01-22 06:31:00,9.0,-1.4,30.15,SSW,207,0.0,1.0,62,0.00,,SKC,0.00,VWS V14.01,2013-01-22 11:31:00,
2013-01-22 06:36:00,9.1,-1.3,30.15,NW,323,1.0,1.0,62,0.00,,SKC,0.00,VWS V14.01,2013-01-22 11:36:00,
2013-01-22 06:42:00,9.1,-1.3,30.15,NE,38,0.0,0.0,62,0.00,,SKC,0.00,VWS V14.01,2013-01-22 11:42:00,
2013-01-22 06:47:00,9.0,-1.0,30.15,WNW,290,0.0,0.0,63,0.00,,SKC,0.00,VWS V14.01,2013-01-22 11:47:00,
2013-01-22 06:52:00,9.0,-1.0,30.15,WNW,293,0.0,0.0,63,0.00,,SKC,0.00,VWS V14.01,2013-01-22 11:52:00,
2013-01-22 06:57:00,9.0,-1.0,30.15,WSW,252,0.0,0.0,63,0.00,,SKC,0.00,VWS V14.01,2013-01-22 11:57:00,
2013-01-22 07:02:00,9.0,-1.0,30.15,WSW,238,0.0,1.0,63,0.00,,SKC,0.00,VWS V14.01,2013-01-22 12:02:00,
2013-01-22 07:07:00,8.9,-0.8,30.15,WSW,246,1.0,2.0,64,0.00,,SKC,0.00,VWS V14.01,2013-01-22 12:07:00,
2013-01-22 07:12:00,8.9,-0.8,30.16,WSW,239,0.0,0.0,64,0.00,,SKC,0.00,VWS V14.01,2013-01-22 12:12:00,
2013-01-22 07:17:00,8.8,-0.9,30.16,North,350,0.0,0.0,64,0.00,,SKC,0.00,VWS V14.01,2013-01-22 12:17:00,
2013-01-22 07:22:00,8.7,-1.0,30.16,WNW,300,2.0,4.0,64,0.00,,SKC,0.00,VWS V14.01,2013-01-22 12:22:00,
2013-01-22 07:27:00,8.7,-1.6,30.16,SW,232,0.0,0.0,62,0.00,,SKC,0.00,VWS V14.01,2013-01-22 12:27:00,
2013-01-22 07:32:00,8.6,-1.7,30.17,SW,219,1.0,1.0,62,0.00,,SKC,0.00,VWS V14.01,2013-01-22 12:32:00,
2013-01-22 07:37:00,8.5,-1.8,30.17,West,267,0.0,1.0,62,0.00,,SKC,0.00,VWS V14.01,2013-01-22 12:37:00,
2013-01-22 07:42:00,8.4,-1.9,30.17,NNW,335,0.0,2.0,62,0.00,,SKC,0.00,VWS V14.01,2013-01-22 12:42:00,
2013-01-22 07:47:00,8.3,-2.0,30.17,WSW,255,0.0,1.0,62,0.00,,SKC,0.00,VWS V14.01,2013-01-22 12:47:00,
2013-01-22 07:52:00,8.2,-2.1,30.17,WNW,294,1.0,5.0,62,0.00,,SKC,0.00,VWS V14.01,2013-01-22 12:52:00,
2013-01-22 07:57:00,8.2,-2.5,30.18,WNW,286,4.0,7.0,61,0.00,,SKC,0.00,VWS V14.01,2013-01-22 12:57:00,
2013-01-22 08:02:00,8.1,-2.5,30.18,West,265,0.0,1.0,61,0.00,,SKC,0.00,VWS V14.01,2013-01-22 13:02:00,
2013-01-22 08:07:00,8.0,-2.3,30.18,WNW,293,2.0,11.0,62,0.00,,SKC,0.00,VWS V14.01,2013-01-22 13:07:00,
2013-01-22 08:12:00,8.0,-2.7,30.19,NNE,15,0.0,2.0,61,0.00,,SKC,0.00,VWS V14.01,2013-01-22 13:12:00,
2013-01-22 08:17:00,8.0,-2.7,30.19,South,170,1.0,16.0,61,0.00,,SKC,0.00,VWS V14.01,2013-01-22 13:17:00,
2013-01-22 08:22:00,8.0,-2.7,30.19,WNW,292,1.0,1.0,61,0.00,,SKC,0.00,VWS V14.01,2013-01-22 13:22:00,
2013-01-22 08:27:00,8.0,-2.7,30.19,NNW,327,0.0,1.0,61,0.00,,SKC,0.00,VWS V14.01,2013-01-22 13:27:00,
2013-01-22 08:32:00,8.0,-2.7,30.20,NW,317,5.0,6.0,61,0.00,,SKC,0.00,VWS V14.01,2013-01-22 13:32:00,
2013-01-22 08:37:00,8.0,-2.7,30.20,WNW,287,6.0,6.0,61,0.00,,SKC,0.00,VWS V14.01,2013-01-22 13:37:00,
2013-01-22 08:42:00,8.0,-2.7,30.20,NW,319,1.0,5.0,61,0.00,,SKC,0.00,VWS V14.01,2013-01-22 13:42:00,
2013-01-22 08:47:00,8.0,-2.7,30.20,WSW,248,6.0,6.0,61,0.00,,SKC,0.00,VWS V14.01,2013-01-22 13:47:00,
2013-01-22 08:52:00,8.1,-2.5,30.20,WSW,238,2.0,2.0,61,0.00,,SKC,0.00,VWS V14.01,2013-01-22 13:52:00,
2013-01-22 08:57:00,8.1,-2.5,30.21,West,274,1.0,7.0,61,0.00,,SKC,0.00,VWS V14.01,2013-01-22 13:57:00,
2013-01-22 09:02:00,8.2,-2.1,30.21,WNW,303,1.0,8.0,62,0.00,,SKC,0.00,VWS V14.01,2013-01-22 14:02:00,
2013-01-22 09:07:00,8.3,-2.4,30.21,NNW,333,2.0,5.0,61,0.00,,SKC,0.00,VWS V14.01,2013-01-22 14:07:00,
2013-01-22 09:12:00,8.5,-2.2,30.21,North,360,4.0,4.0,61,0.00,,SKC,0.00,VWS V14.01,2013-01-22 14:12:00,
2013-01-22 09:17:00,8.5,-2.2,30.21,SW,225,7.0,7.0,61,0.00,,SKC,0.00,VWS V14.01,2013-01-22 14:17:00,
2013-01-22 09:22:00,8.7,-2.3,30.22,WSW,248,0.0,4.0,60,0.00,,SKC,0.00,VWS V14.01,2013-01-22 14:22:00,
2013-01-22 09:27:00,8.7,-2.7,30.22,West,267,1.0,5.0,59,0.00,,SKC,0.00,VWS V14.01,2013-01-22 14:27:00,
2013-01-22 09:32:00,8.9,-2.5,30.22,SW,222,0.0,6.0,59,0.00,,SKC,0.00,VWS V14.01,2013-01-22 14:32:00,
2013-01-22 09:37:00,9.0,-2.8,30.23,NW,317,3.0,3.0,58,0.00,,SKC,0.00,VWS V14.01,2013-01-22 14:37:00,
2013-01-22 09:42:00,9.1,-3.0,30.23,SSW,196,1.0,4.0,57,0.00,,SKC,0.00,VWS V14.01,2013-01-22 14:42:00,
2013-01-22 09:47:00,9.3,-2.5,30.23,NW,304,1.0,5.0,58,0.00,,SKC,0.00,VWS V14.01,2013-01-22 14:47:00,
2013-01-22 09:52:00,9.6,-2.2,30.23,WNW,285,0.0,1.0,58,0.00,,SKC,0.00,VWS V14.01,2013-01-22 14:52:00,
2013-01-22 09:57:00,10.2,-2.0,30.24,NNW,327,1.0,5.0,57,0.00,,SKC,0.00,VWS V14.01,2013-01-22 14:57:00,
2013-01-22 10:02:00,10.8,-1.4,30.23,NNW,329,1.0,7.0,57,0.00,,SKC,0.00,VWS V14.01,2013-01-22 15:02:00,
2013-01-22 10:07:00,10.7,-2.3,30.24,NW,317,1.0,3.0,55,0.00,,SKC,0.00,VWS V14.01,2013-01-22 15:07:00,
2013-01-22 10:12:00,10.4,-2.2,30.24,WSW,245,6.0,6.0,56,0.00,,SKC,0.00,VWS V14.01,2013-01-22 15:12:00,
2013-01-22 10:17:00,10.6,-2.4,30.24,NW,319,0.0,0.0,55,0.00,,SKC,0.00,VWS V14.01,2013-01-22 15:17:00,
2013-01-22 10:22:00,10.7,-2.3,30.24,WSW,243,4.0,5.0,55,0.00,,SKC,0.00,VWS V14.01,2013-01-22 15:22:00,
2013-01-22 10:27:00,11.1,-1.9,30.24,NW,325,0.0,2.0,55,0.00,,SKC,0.00,VWS V14.01,2013-01-22 15:27:00,
2013-01-22 10:32:00,11.6,-1.0,30.24,SW,233,2.0,2.0,56,0.00,,SKC,0.00,VWS V14.01,2013-01-22 15:32:00,
2013-01-22 10:37:00,11.6,-1.8,30.24,NNW,338,0.0,0.0,54,0.00,,SKC,0.00,VWS V14.01,2013-01-22 15:37:00,
2013-01-22 10:42:00,11.5,-1.9,30.24,North,355,5.0,15.0,54,0.00,,SKC,0.00,VWS V14.01,2013-01-22 15:42:00,
2013-01-22 10:47:00,11.7,-1.3,30.24,West,261,0.0,0.0,55,0.00,,SKC,0.00,VWS V14.01,2013-01-22 15:47:00,
2013-01-22 10:52:00,11.8,-1.6,30.24,WNW,283,2.0,5.0,54,0.00,,SKC,0.00,VWS V14.01,2013-01-22 15:52:00,
2013-01-22 10:57:00,12.3,-0.8,30.24,WNW,288,4.0,10.0,55,0.00,,SKC,0.00,VWS V14.01,2013-01-22 15:57:00,
2013-01-22 11:02:00,12.1,-2.1,30.23,WNW,303,5.0,10.0,52,0.00,,SKC,0.00,VWS V14.01,2013-01-22 16:02:00,
2013-01-22 11:07:00,11.9,-2.3,30.24,NNW,328,0.0,0.0,52,0.00,,SKC,0.00,VWS V14.01,2013-01-22 16:07:00,
2013-01-22 11:12:00,11.9,-1.9,30.24,West,272,4.0,4.0,53,0.00,,SKC,0.00,VWS V14.01,2013-01-22 16:12:00,
2013-01-22 11:17:00,12.3,-1.6,30.24,WSW,250,0.0,4.0,53,0.00,,SKC,0.00,VWS V14.01,2013-01-22 16:17:00,
2013-01-22 11:22:00,12.3,-1.6,30.24,SSW,202,1.0,7.0,53,0.00,,SKC,0.00,VWS V14.01,2013-01-22 16:22:00,
2013-01-22 11:27:00,12.3,-1.2,30.23,West,279,0.0,3.0,54,0.00,,SKC,0.00,VWS V14.01,2013-01-22 16:27:00,
2013-01-22 11:32:00,12.5,-1.8,30.23,NNW,327,4.0,8.0,52,0.00,,SKC,0.00,VWS V14.01,2013-01-22 16:32:00,
2013-01-22 11:37:00,12.8,-1.5,30.23,NW,306,4.0,11.0,52,0.00,,SKC,0.00,VWS V14.01,2013-01-22 16:37:00,
2013-01-22 11:42:00,12.7,-2.0,30.22,SW,235,4.0,4.0,51,0.00,,SKC,0.00,VWS V14.01,2013-01-22 16:42:00,
2013-01-22 11:47:00,13.1,-1.2,30.22,WSW,258,1.0,1.0,52,0.00,,SKC,0.00,VWS V14.01,2013-01-22 16:47:00,
2013-01-22 11:52:00,14.0,-0.8,30.22,WNW,284,0.0,1.0,51,0.00,,SKC,0.00,VWS V14.01,2013-01-22 16:52:00,
2013-01-22 11:57:00,13.9,-0.9,30.22,NW,306,0.0,1.0,51,0.00,,SKC,0.00,VWS V14.01,2013-01-22 16:57:00,
2013-01-22 12:02:00,13.7,-1.5,30.22,North,355,0.0,1.0,50,0.00,,SKC,0.00,VWS V14.01,2013-01-22 17:02:00,
2013-01-22 12:07:00,13.4,-1.8,30.22,SSW,195,1.0,1.0,50,0.00,,SKC,0.00,VWS V14.01,2013-01-22 17:07:00,
2013-01-22 12:12:00,14.3,-0.1,30.22,NW,310,1.0,4.0,52,0.00,,SKC,0.00,VWS V14.01,2013-01-22 17:12:00,
2013-01-22 12:17:00,14.9,-0.4,30.21,West,273,0.0,4.0,50,0.00,,SKC,0.00,VWS V14.01,2013-01-22 17:17:00,
2013-01-22 12:22:00,14.9,-0.8,30.21,WNW,286,2.0,2.0,49,0.00,,SKC,0.00,VWS V14.01,2013-01-22 17:22:00,
2013-01-22 12:27:00,14.6,-0.6,30.21,WSW,238,4.0,5.0,50,0.00,,SKC,0.00,VWS V14.01,2013-01-22 17:27:00,
2013-01-22 12:32:00,15.2,-0.5,30.20,NW,316,7.0,7.0,49,0.00,,SKC,0.00,VWS V14.01,2013-01-22 17:32:00,
2013-01-22 12:37:00,15.2,-0.5,30.21,SW,236,1.0,1.0,49,0.00,,SKC,0.00,VWS V14.01,2013-01-22 17:37:00,
2013-01-22 12:42:00,14.6,-1.5,30.20,West,269,5.0,13.0,48,0.00,,SKC,0.00,VWS V14.01,2013-01-22 17:42:00,
2013-01-22 12:47:00,15.0,-0.7,30.20,NNW,336,5.0,13.0,49,0.00,,SKC,0.00,VWS V14.01,2013-01-22 17:47:00,
2013-01-22 12:52:00,14.8,-0.9,30.20,West,263,4.0,4.0,49,0.00,,SKC,0.00,VWS V14.01,2013-01-22 17:52:00,
2013-01-22 12:57:00,15.0,-0.7,30.20,West,262,0.0,1.0,49,0.00,,SKC,0.00,VWS V14.01,2013-01-22 17:57:00,
2013-01-22 13:02:00,15.1,-0.6,30.20,WNW,288,0.0,1.0,49,0.00,,SKC,0.00,VWS V14.01,2013-01-22 18:02:00,
2013-01-22 13:08:00,15.1,-0.6,30.20,NE,42,2.0,2.0,49,0.00,,SKC,0.00,VWS V14.01,2013-01-22 18:08:00,
2013-01-22 13:12:00,15.5,-0.2,30.19,West,268,0.0,0.0,49,0.00,,SKC,0.00,VWS V14.01,2013-01-22 18:12:00,
2013-01-22 13:18:00,15.5,-0.7,30.20,NNW,333,0.0,7.0,48,0.00,,SKC,0.00,VWS V14.01,2013-01-22 18:18:00,
2013-01-22 13:23:00,15.3,-1.3,30.20,West,264,8.0,8.0,47,0.00,,SKC,0.00,VWS V14.01,2013-01-22 18:23:00,
2013-01-22 13:28:00,15.3,-0.9,30.19,North,5,3.0,10.0,48,0.00,,SKC,0.00,VWS V14.01,2013-01-22 18:28:00,
2013-01-22 13:33:00,15.3,-0.9,30.19,North,360,2.0,2.0,48,0.00,,SKC,0.00,VWS V14.01,2013-01-22 18:33:00,
2013-01-22 13:38:00,15.2,-1.4,30.19,NW,310,2.0,6.0,47,0.00,,SKC,0.00,VWS V14.01,2013-01-22 18:38:00,
2013-01-22 13:43:00,14.5,-2.0,30.19,West,273,5.0,11.0,47,0.00,,SKC,0.00,VWS V14.01,2013-01-22 18:43:00,
2013-01-22 13:48:00,14.4,-1.3,30.20,SW,234,5.0,9.0,49,0.00,,SKC,0.00,VWS V14.01,2013-01-22 18:48:00,
2013-01-22 13:53:00,14.7,-1.4,30.19,NW,320,0.0,1.0,48,0.00,,SKC,0.00,VWS V14.01,2013-01-22 18:53:00,
2013-01-22 13:58:00,14.5,-1.6,30.19,West,275,1.0,7.0,48,0.00,,SKC,0.00,VWS V14.01,2013-01-22 18:58:00,
2013-01-22 14:03:00,14.5,-2.0,30.20,West,271,6.0,6.0,47,0.00,,SKC,0.00,VWS V14.01,2013-01-22 19:03:00,
2013-01-22 14:08:00,15.0,-1.1,30.20,North,5,0.0,1.0,48,0.00,,SKC,0.00,VWS V14.01,2013-01-22 19:08:00,
2013-01-22 14:13:00,15.1,-1.0,30.20,North,350,7.0,8.0,48,0.00,,SKC,0.00,VWS V14.01,2013-01-22 19:13:00,
2013-01-22 14:18:00,15.1,-1.5,30.20,NW,314,1.0,5.0,47,0.00,,SKC,0.00,VWS V14.01,2013-01-22 19:18:00,
2013-01-22 14:23:00,14.7,-1.9,30.20,North,355,1.0,3.0,47,0.00,,SKC,0.00,VWS V14.01,2013-01-22 19:23:00,
2013-01-22 14:28:00,14.9,-1.2,30.20,NW,325,0.0,2.0,48,0.00,,SKC,0.00,VWS V14.01,2013-01-22 19:28:00,
2013-01-22 14:33:00,15.3,-0.9,30.20,NW,319,1.0,7.0,48,0.00,,SKC,0.00,VWS V14.01,2013-01-22 19:33:00,
2013-01-22 14:38:00,15.4,-0.8,30.20,West,275,6.0,6.0,48,0.00,,SKC,0.00,VWS V14.01,2013-01-22 19:38:00,
2013-01-22 14:43:00,15.2,-1.4,30.20,WSW,244,0.0,0.0,47,0.00,,SKC,0.00,VWS V14.01,2013-01-22 19:43:00,
2013-01-22 14:48:00,15.1,-1.0,30.21,West,280,7.0,7.0,48,0.00,,SKC,0.00,VWS V14.01,2013-01-22 19:48:00,
2013-01-22 14:53:00,15.0,-1.1,30.20,NW,315,0.0,0.0,48,0.00,,SKC,0.00,VWS V14.01,2013-01-22 19:53:00,
2013-01-22 14:58:00,14.9,-0.8,30.20,WNW,303,0.0,5.0,49,0.00,,SKC,0.00,VWS V14.01,2013-01-22 19:58:00,
2013-01-22 15:03:00,14.9,-1.2,30.20,SW,236,7.0,7.0,48,0.00,,SKC,0.00,VWS V14.01,2013-01-22 20:03:00,
2013-01-22 15:08:00,14.9,-1.2,30.21,West,276,2.0,10.0,48,0.00,,SKC,0.00,VWS V14.01,2013-01-22 20:08:00,
2013-01-22 15:13:00,14.6,-2.0,30.21,West,264,0.0,8.0,47,0.00,,SKC,0.00,VWS V14.01,2013-01-22 20:13:00,
2013-01-22 15:18:00,14.5,-2.0,30.21,NW,315,0.0,10.0,47,0.00,,SKC,0.00,VWS V14.01,2013-01-22 20:18:00,
2013-01-22 15:23:00,14.3,-2.2,30.21,NW,317,2.0,3.0,47,0.00,,SKC,0.00,VWS V14.01,2013-01-22 20:23:00,
2013-01-22 15:28:00,14.4,-1.7,30.21,NW,311,2.0,2.0,48,0.00,,SKC,0.00,VWS V14.01,2013-01-22 20:28:00,
2013-01-22 15:33:00,14.4,-1.3,30.21,West,277,1.0,1.0,49,0.00,,SKC,0.00,VWS V14.01,2013-01-22 20:33:00,
2013-01-22 15:38:00,14.4,-1.7,30.21,NNW,340,0.0,0.0,48,0.00,,SKC,0.00,VWS V14.01,2013-01-22 20:38:00,
2013-01-22 15:43:00,14.2,-2.3,30.21,NNW,334,0.0,2.0,47,0.00,,SKC,0.00,VWS V14.01,2013-01-22 20:43:00,
2013-01-22 15:48:00,14.3,-1.4,30.21,West,267,5.0,5.0,49,0.00,,SKC,0.00,VWS V14.01,2013-01-22 20:48:00,
2013-01-22 15:53:00,14.3,-1.8,30.21,NNW,342,0.0,0.0,48,0.00,,SKC,0.00,VWS V14.01,2013-01-22 20:53:00,
2013-01-22 15:58:00,14.3,-1.4,30.21,West,261,0.0,1.0,49,0.00,,SKC,0.00,VWS V14.01,2013-01-22 20:58:00,
2013-01-22 16:03:00,14.3,-2.2,30.21,WNW,298,1.0,1.0,47,0.00,,SKC,0.00,VWS V14.01,2013-01-22 21:03:00,
2013-01-22 16:08:00,14.2,-1.9,30.22,NNW,328,1.0,2.0,48,0.00,,SKC,0.00,VWS V14.01,2013-01-22 21:08:00,
2013-01-22 16:13:00,14.1,-2.0,30.22,SSE,154,1.0,1.0,48,0.00,,SKC,0.00,VWS V14.01,2013-01-22 21:13:00,
2013-01-22 16:18:00,14.0,-2.1,30.22,North,355,0.0,0.0,48,0.00,,SKC,0.00,VWS V14.01,2013-01-22 21:18:00,
2013-01-22 16:23:00,13.9,-1.7,30.22,East,99,0.0,0.0,49,0.00,,SKC,0.00,VWS V14.01,2013-01-22 21:23:00,
2013-01-22 16:28:00,13.9,-1.7,30.22,West,262,3.0,7.0,49,0.00,,SKC,0.00,VWS V14.01,2013-01-22 21:28:00,
2013-01-22 16:31:00,13.9,-1.7,30.22,West,269,0.0,4.0,49,0.00,,SKC,0.00,VWS V14.01,2013-01-22 21:31:00,
2013-01-22 16:36:00,13.9,-1.7,30.23,NW,318,0.0,1.0,49,0.00,,SKC,0.00,VWS V14.01,2013-01-22 21:36:00,
2013-01-22 16:41:00,13.8,-1.8,30.23,West,259,2.0,2.0,49,0.00,,SKC,0.00,VWS V14.01,2013-01-22 21:41:00,
2013-01-22 16:46:00,13.8,-1.8,30.23,NW,305,1.0,3.0,49,0.00,,SKC,0.00,VWS V14.01,2013-01-22 21:46:00,
2013-01-22 16:51:00,13.9,-1.7,30.23,WSW,251,0.0,8.0,49,0.00,,SKC,0.00,VWS V14.01,2013-01-22 21:51:00,
2013-01-22 16:56:00,13.9,-2.2,30.23,NW,315,0.0,10.0,48,0.00,,SKC,0.00,VWS V14.01,2013-01-22 21:56:00,
2013-01-22 17:01:00,13.8,-1.8,30.23,SW,234,0.0,1.0,49,0.00,,SKC,0.00,VWS V14.01,2013-01-22 22:01:00,
2013-01-22 17:06:00,13.6,-2.0,30.23,SSE,159,0.0,1.0,49,0.00,,SKC,0.00,VWS V14.01,2013-01-22 22:06:00,
2013-01-22 17:11:00,13.6,-2.0,30.24,West,273,9.0,9.0,49,0.00,,SKC,0.00,VWS V14.01,2013-01-22 22:11:00,
2013-01-22 17:16:00,13.5,-2.1,30.24,SW,228,0.0,1.0,49,0.00,,SKC,0.00,VWS V14.01,2013-01-22 22:16:00,
2013-01-22 17:21:00,13.5,-2.1,30.24,West,261,0.0,1.0,49,0.00,,SKC,0.00,VWS V14.01,2013-01-22 22:21:00,
2013-01-22 17:26:00,13.4,-1.8,30.25,SW,236,0.0,4.0,50,0.00,,SKC,0.00,VWS V14.01,2013-01-22 22:26:00,
2013-01-22 17:31:00,13.2,-2.4,30.25,West,270,0.0,1.0,49,0.00,,SKC,0.00,VWS V14.01,2013-01-22 22:31:00,
2013-01-22 17:36:00,12.9,-2.2,30.25,WSW,255,0.0,5.0,50,0.00,,SKC,0.00,VWS V14.01,2013-01-22 22:36:00,
2013-01-22 17:41:00,12.8,-1.9,30.25,WSW,252,1.0,5.0,51,0.00,,SKC,0.00,VWS V14.01,2013-01-22 22:41:00,
2013-01-22 17:46:00,12.8,-2.3,30.25,WSW,241,2.0,5.0,50,0.00,,SKC,0.00,VWS V14.01,2013-01-22 22:46:00,
2013-01-22 17:51:00,12.9,-2.2,30.26,WNW,290,1.0,7.0,50,0.00,,SKC,0.00,VWS V14.01,2013-01-22 22:51:00,
2013-01-22 17:56:00,12.7,-2.4,30.26,NW,306,5.0,10.0,50,0.00,,SKC,0.00,VWS V14.01,2013-01-22 22:56:00,
2013-01-22 18:01:00,12.7,-2.0,30.26,West,274,8.0,8.0,51,0.00,,SKC,0.00,VWS V14.01,2013-01-22 23:01:00,
2013-01-22 18:06:00,12.7,-2.4,30.26,West,261,0.0,1.0,50,0.00,,SKC,0.00,VWS V14.01,2013-01-22 23:06:00,
2013-01-22 18:11:00,12.6,-2.1,30.27,WNW,282,2.0,2.0,51,0.00,,SKC,0.00,VWS V14.01,2013-01-22 23:11:00,
2013-01-22 18:16:00,12.5,-2.2,30.27,NW,306,8.0,8.0,51,0.00,,SKC,0.00,VWS V14.01,2013-01-22 23:16:00,
2013-01-22 18:21:00,12.4,-2.3,30.27,WSW,242,6.0,8.0,51,0.00,,SKC,0.00,VWS V14.01,2013-01-22 23:21:00,
2013-01-22 18:26:00,12.5,-2.2,30.27,WSW,258,5.0,8.0,51,0.00,,SKC,0.00,VWS V14.01,2013-01-22 23:26:00,
2013-01-22 18:31:00,12.4,-2.3,30.28,WNW,297,1.0,5.0,51,0.00,,SKC,0.00,VWS V14.01,2013-01-22 23:31:00,
2013-01-22 18:36:00,12.3,-2.4,30.28,NW,325,1.0,6.0,51,0.00,,SKC,0.00,VWS V14.01,2013-01-22 23:36:00,
2013-01-22 18:41:00,12.3,-2.4,30.28,SW,227,0.0,1.0,51,0.00,,SKC,0.00,VWS V14.01,2013-01-22 23:41:00,
2013-01-22 18:46:00,12.2,-2.0,30.28,WNW,290,3.0,3.0,52,0.00,,SKC,0.00,VWS V14.01,2013-01-22 23:46:00,
2013-01-22 18:51:00,12.2,-2.0,30.28,North,5,1.0,6.0,52,0.00,,SKC,0.00,VWS V14.01,2013-01-22 23:51:00,
2013-01-22 18:56:00,12.1,-2.1,30.28,NNE,19,2.0,2.0,52,0.00,,SKC,0.00,VWS V14.01,2013-01-22 23:56:00,
2013-01-22 19:01:00,12.0,-1.8,30.28,WSW,242,2.0,5.0,53,0.00,,SKC,0.00,VWS V14.01,2013-01-23 00:01:00,
2013-01-22 19:06:00,11.9,-1.9,30.28,NW,304,1.0,4.0,53,0.00,,SKC,0.00,VWS V14.01,2013-01-23 00:06:00,
2013-01-22 19:11:00,12.0,-1.8,30.28,WSW,257,0.0,1.0,53,0.00,,SKC,0.00,VWS V14.01,2013-01-23 00:11:00,
2013-01-22 19:16:00,11.8,-2.0,30.28,WSW,243,0.0,3.0,53,0.00,,SKC,0.00,VWS V14.01,2013-01-23 00:16:00,
2013-01-22 19:21:00,11.7,-2.1,30.28,West,279,0.0,2.0,53,0.00,,SKC,0.00,VWS V14.01,2013-01-23 00:21:00,
2013-01-22 19:26:00,11.7,-1.7,30.29,SW,225,1.0,2.0,54,0.00,,SKC,0.00,VWS V14.01,2013-01-23 00:26:00,
2013-01-22 19:31:00,11.7,-1.7,30.28,WNW,286,0.0,1.0,54,0.00,,SKC,0.00,VWS V14.01,2013-01-23 00:31:00,
2013-01-22 19:36:00,11.7,-1.7,30.29,SSW,211,1.0,2.0,54,0.00,,SKC,0.00,VWS V14.01,2013-01-23 00:36:00,
2013-01-22 19:41:00,11.7,-1.7,30.29,SW,227,2.0,2.0,54,0.00,,SKC,0.00,VWS V14.01,2013-01-23 00:41:00,
2013-01-22 19:46:00,11.6,-1.8,30.29,WSW,248,0.0,0.0,54,0.00,,SKC,0.00,VWS V14.01,2013-01-23 00:46:00,
2013-01-22 19:51:00,11.6,-1.8,30.29,SSW,211,0.0,0.0,54,0.00,,SKC,0.00,VWS V14.01,2013-01-23 00:51:00,
2013-01-22 19:56:00,11.6,-1.8,30.29,West,261,1.0,1.0,54,0.00,,SKC,0.00,VWS V14.01,2013-01-23 00:56:00,
2013-01-22 20:01:00,11.5,-1.9,30.30,SW,217,0.0,3.0,54,0.00,,SKC,0.00,VWS V14.01,2013-01-23 01:01:00,
2013-01-22 20:06:00,11.4,-2.0,30.30,West,280,1.0,6.0,54,0.00,,SKC,0.00,VWS V14.01,2013-01-23 01:06:00,
2013-01-22 20:11:00,11.3,-1.7,30.30,WNW,290,0.0,1.0,55,0.00,,SKC,0.00,VWS V14.01,2013-01-23 01:11:00,
2013-01-22 20:16:00,11.1,-1.9,30.30,West,275,1.0,1.0,55,0.00,,SKC,0.00,VWS V14.01,2013-01-23 01:16:00,
2013-01-22 20:21:00,11.1,-1.9,30.31,NW,306,0.0,0.0,55,0.00,,SKC,0.00,VWS V14.01,2013-01-23 01:21:00,
2013-01-22 20:25:00,11.0,-2.0,30.30,SW,236,5.0,5.0,55,0.00,,SKC,0.00,VWS V14.01,2013-01-23 01:25:00,
2013-01-22 20:31:00,11.0,-2.0,30.30,WSW,238,3.0,3.0,55,0.00,,SKC,0.00,VWS V14.01,2013-01-23 01:31:00,
2013-01-22 20:36:00,10.9,-1.7,30.30,WNW,282,2.0,6.0,56,0.00,,SKC,0.00,VWS V14.01,2013-01-23 01:36:00,
2013-01-22 20:41:00,10.9,-1.7,30.30,West,268,1.0,1.0,56,0.00,,SKC,0.00,VWS V14.01,2013-01-23 01:41:00,
2013-01-22 20:46:00,10.9,-1.7,30.30,West,271,1.0,6.0,56,0.00,,SKC,0.00,VWS V14.01,2013-01-23 01:46:00,
2013-01-22 20:51:00,10.8,-1.8,30.31,WNW,284,1.0,4.0,56,0.00,,SKC,0.00,VWS V14.01,2013-01-23 01:51:00,
2013-01-22 20:56:00,10.8,-1.8,30.31,West,279,0.0,0.0,56,0.00,,SKC,0.00,VWS V14.01,2013-01-23 01:56:00,
2013-01-22 21:01:00,10.8,-1.4,30.31,South,179,0.0,1.0,57,0.00,,SKC,0.00,VWS V14.01,2013-01-23 02:01:00,
2013-01-22 21:06:00,10.8,-1.8,30.31,NNW,337,1.0,1.0,56,0.00,,SKC,0.00,VWS V14.01,2013-01-23 02:06:00,
2013-01-22 21:11:00,10.8,-1.8,30.30,WSW,248,0.0,1.0,56,0.00,,SKC,0.00,VWS V14.01,2013-01-23 02:11:00,
2013-01-22 21:16:00,10.8,-1.4,30.30,WSW,250,0.0,2.0,57,0.00,,SKC,0.00,VWS V14.01,2013-01-23 02:16:00,
2013-01-22 21:21:00,10.8,-1.4,30.30,WNW,296,2.0,2.0,57,0.00,,SKC,0.00,VWS V14.01,2013-01-23 02:21:00,
2013-01-22 21:26:00,10.7,-1.5,30.29,West,275,0.0,0.0,57,0.00,,SKC,0.00,VWS V14.01,2013-01-23 02:26:00,
2013-01-22 21:31:00,10.7,-1.5,30.30,WSW,258,0.0,0.0,57,0.00,,SKC,0.00,VWS V14.01,2013-01-23 02:31:00,
2013-01-22 21:36:00,10.6,-1.6,30.30,West,281,0.0,0.0,57,0.00,,SKC,0.00,VWS V14.01,2013-01-23 02:36:00,
2013-01-22 21:41:00,10.6,-1.2,30.30,NNW,344,0.0,0.0,58,0.00,,SKC,0.00,VWS V14.01,2013-01-23 02:41:00,
2013-01-22 21:46:00,10.5,-1.3,30.30,West,265,0.0,0.0,58,0.00,,SKC,0.00,VWS V14.01,2013-01-23 02:46:00,
2013-01-22 21:51:00,10.5,-1.3,30.30,WNW,291,0.0,0.0,58,0.00,,SKC,0.00,VWS V14.01,2013-01-23 02:51:00,
2013-01-22 21:56:00,10.5,-1.3,30.30,NW,307,0.0,0.0,58,0.00,,SKC,0.00,VWS V14.01,2013-01-23 02:56:00,
2013-01-22 22:01:00,10.5,-1.3,30.30,WSW,258,3.0,6.0,58,0.00,,SKC,0.00,VWS V14.01,2013-01-23 03:01:00,
2013-01-22 22:06:00,10.5,-1.0,30.30,WNW,283,2.0,2.0,59,0.00,,SKC,0.00,VWS V14.01,2013-01-23 03:06:00,
2013-01-22 22:11:00,10.4,-1.1,30.30,SSW,209,0.0,2.0,59,0.00,,SKC,0.00,VWS V14.01,2013-01-23 03:11:00,
2013-01-22 22:16:00,10.4,-1.1,30.30,WNW,300,1.0,2.0,59,0.00,,SKC,0.00,VWS V14.01,2013-01-23 03:16:00,
2013-01-22 22:21:00,10.5,-1.0,30.30,West,263,2.0,2.0,59,0.00,,SKC,0.00,VWS V14.01,2013-01-23 03:21:00,
2013-01-22 22:26:00,10.5,-1.0,30.30,West,263,0.0,1.0,59,0.00,,SKC,0.00,VWS V14.01,2013-01-23 03:26:00,
2013-01-22 22:31:00,10.5,-1.0,30.30,West,275,0.0,0.0,59,0.00,,SKC,0.00,VWS V14.01,2013-01-23 03:31:00,
2013-01-22 22:36:00,10.5,-1.0,30.30,West,275,0.0,5.0,59,0.00,,SKC,0.00,VWS V14.01,2013-01-23 03:36:00,
2013-01-22 22:41:00,10.5,-1.0,30.30,West,260,0.0,0.0,59,0.00,,SKC,0.00,VWS V14.01,2013-01-23 03:41:00,
2013-01-22 22:46:00,10.4,-1.1,30.30,West,267,2.0,5.0,59,0.00,,SKC,0.00,VWS V14.01,2013-01-23 03:46:00,
2013-01-22 22:51:00,10.4,-1.1,30.30,NW,304,0.0,0.0,59,0.00,,SKC,0.00,VWS V14.01,2013-01-23 03:51:00,
2013-01-22 22:56:00,10.3,-1.2,30.30,West,281,0.0,0.0,59,0.00,,SKC,0.00,VWS V14.01,2013-01-23 03:56:00,
2013-01-22 23:01:00,10.3,-1.2,30.30,NNW,344,0.0,0.0,59,0.00,,SKC,0.00,VWS V14.01,2013-01-23 04:01:00,
2013-01-22 23:06:00,10.2,-1.3,30.31,NNW,330,0.0,2.0,59,0.00,,SKC,0.00,VWS V14.01,2013-01-23 04:06:00,
2013-01-22 23:11:00,10.2,-1.3,30.30,SSW,194,0.0,0.0,59,0.00,,SKC,0.00,VWS V14.01,2013-01-23 04:11:00,
2013-01-22 23:16:00,10.1,-1.4,30.31,WNW,290,0.0,0.0,59,0.00,,SKC,0.00,VWS V14.01,2013-01-23 04:16:00,
2013-01-22 23:21:00,10.1,-1.4,30.31,NW,313,0.0,1.0,59,0.00,,SKC,0.00,VWS V14.01,2013-01-23 04:21:00,
2013-01-22 23:25:00,10.0,-1.1,30.31,NNW,347,0.0,0.0,60,0.00,,SKC,0.00,VWS V14.01,2013-01-23 04:25:00,
2013-01-22 23:30:00,10.0,-1.1,30.31,SSW,208,0.0,1.0,60,0.00,,SKC,0.00,VWS V14.01,2013-01-23 04:30:00,
2013-01-22 23:35:00,10.0,-1.1,30.31,WSW,244,0.0,0.0,60,0.00,,SKC,0.00,VWS V14.01,2013-01-23 04:35:00,
2013-01-22 23:40:00,10.1,-1.0,30.31,NW,319,0.0,2.0,60,0.00,,SKC,0.00,VWS V14.01,2013-01-23 04:40:00,
2013-01-22 23:45:00,10.0,-1.1,30.31,West,262,0.0,0.0,60,0.00,,SKC,0.00,VWS V14.01,2013-01-23 04:45:00,
2013-01-22 23:51:00,10.0,-1.1,30.30,West,259,0.0,1.0,60,0.00,,SKC,0.00,VWS V14.01,2013-01-23 04:51:00,
2013-01-22 23:55:00,10.1,-1.0,30.30,SSW,194,0.0,5.0,60,0.00,,SKC,0.00,VWS V14.01,2013-01-23 04:55:00,